Total_Precipitation_Accumulation
0.74 0.77 0.83 0.85 0.90 1.00 1.12 1.19 1.21 1.20 1.18 1.25 1.35 1.44 1.46 1.48 1.52 1.52 1.44 1.40 1.33 1.25 1.23 1.27 1.27 1.22 1.27 1.28 1.30 1.39 1.50 1.66 1.70 1.39 1.18 1.18 1.27 1.29 1.29 1.20 1.14 1.17 1.18
0.60 0.61 0.65 0.70 0.73 0.80 0.89 0.97 1.03 1.07 1.08 1.09 1.08 1.10 1.19 1.26 1.34 1.38 1.35 1.31 1.27 1.20 1.15 1.18 1.21 1.21 1.24 1.26 1.31 1.36 1.42 1.49 1.55 1.44 1.22 1.12 1.08 1.04 1.01 0.98 0.93 0.89 0.88
0.53 0.56 0.57 0.57 0.59 0.64 0.69 0.74 0.76 0.83 0.92 0.97 0.96 0.94 0.93 0.95 1.03 1.14 1.20 1.23 1.22 1.18 1.19 1.18 1.17 1.22 1.26 1.27 1.31 1.35 1.34 1.31 1.29 1.25 1.10 0.94 0.87 0.85 0.88 0.85 0.82 0.81 0.75
0.47 0.49 0.53 0.52 0.53 0.55 0.56 0.59 0.60 0.62 0.64 0.69 0.73 0.75 0.80 0.81 0.83 0.90 0.99 1.08 1.16 1.19 1.22 1.22 1.21 1.26 1.35 1.38 1.36 1.33 1.28 1.23 1.17 1.13 1.04 0.94 0.83 0.76 0.79 0.82 0.81 0.79 0.74
0.46 0.44 0.45 0.48 0.49 0.48 0.47 0.47 0.45 0.45 0.46 0.49 0.55 0.59 0.64 0.69 0.74 0.79 0.81 0.88 0.97 1.05 1.15 1.23 1.27 1.36 1.39 1.33 1.19 1.09 1.03 1.02 1.01 1.00 0.94 0.84 0.77 0.71 0.71 0.66 0.67 0.70 0.73
0.45 0.43 0.42 0.44 0.46 0.46 0.43 0.39 0.38 0.40 0.42 0.44 0.48 0.52 0.58 0.61 0.78 0.81 0.75 0.74 0.84 0.93 0.99 1.06 1.14 1.20 1.12 1.08 1.01 0.93 0.93 0.97 0.96 0.87 0.76 0.65 0.56 0.51 0.52 0.59 0.66 0.77 0.80
0.51 0.47 0.43 0.42 0.44 0.45 0.46 0.46 0.45 0.44 0.46 0.49 0.50 0.53 0.56 0.64 0.78 0.80 0.86 0.78 0.80 0.84 0.86 0.88 0.86 0.84 0.85 0.73 0.75 0.75 0.75 0.78 0.75 0.68 0.64 0.52 0.46 0.43 0.54 0.65 0.67 0.69 0.62
0.63 0.62 0.56 0.56 0.58 0.61 0.63 0.64 0.63 0.63 0.64 0.64 0.64 0.66 0.70 0.78 0.87 0.82 0.82 0.76 0.73 0.71 0.67 0.66 0.65 0.62 0.62 0.65 0.64 0.63 0.55 0.50 0.49 0.45 0.41 0.38 0.40 0.46 0.57 0.69 0.72 0.74 0.65
0.79 0.86 0.84 0.82 0.84 0.87 0.92 0.94 0.92 0.90 0.89 0.89 0.88 0.86 0.85 0.84 0.82 0.71 0.65 0.60 0.59 0.54 0.50 0.49 0.51 0.50 0.56 0.65 0.64 0.60 0.55 0.49 0.49 0.51 0.51 0.50 0.54 0.56 0.60 0.69 0.82 0.95 0.89
0.89 0.96 0.94 0.94 0.94 0.94 0.95 0.95 0.91 0.87 0.85 0.82 0.81 0.77 0.71 0.63 0.59 0.53 0.49 0.45 0.45 0.42 0.40 0.42 0.50 0.51 0.60 0.69 0.67 0.64 0.61 0.53 0.51 0.53 0.52 0.51 0.48 0.50 0.56 0.54 0.63 0.91 0.93
0.86 0.83 0.78 0.75 0.71 0.67 0.64 0.62 0.61 0.58 0.57 0.54 0.51 0.47 0.42 0.38 0.39 0.39 0.42 0.40 0.41 0.42 0.41 0.41 0.43 0.55 0.62 0.70 0.74 0.69 0.66 0.63 0.59 0.58 0.58 0.55 0.54 0.54 0.52 0.47 0.50 0.72 0.94
0.59 0.52 0.45 0.43 0.42 0.41 0.42 0.39 0.36 0.35 0.35 0.33 0.31 0.29 0.27 0.27 0.30 0.33 0.39 0.42 0.45 0.44 0.41 0.37 0.38 0.52 0.61 0.65 0.66 0.70 0.77 0.77 0.67 0.64 0.64 0.61 0.56 0.54 0.51 0.48 0.49 0.52 0.59
0.30 0.26 0.23 0.22 0.23 0.25 0.27 0.27 0.24 0.22 0.24 0.25 0.25 0.26 0.26 0.25 0.28 0.33 0.37 0.41 0.47 0.46 0.42 0.45 0.50 0.56 0.59 0.58 0.60 0.65 0.70 0.67 0.66 0.66 0.60 0.52 0.46 0.45 0.49 0.54 0.57 0.58 0.57
0.22 0.21 0.20 0.19 0.20 0.22 0.24 0.27 0.27 0.26 0.27 0.28 0.29 0.30 0.28 0.27 0.27 0.30 0.34 0.39 0.45 0.47 0.47 0.48 0.52 0.56 0.59 0.59 0.61 0.60 0.60 0.62 0.64 0.62 0.54 0.49 0.48 0.51 0.54 0.56 0.63 0.66 0.72
0.22 0.23 0.24 0.23 0.22 0.24 0.27 0.30 0.34 0.33 0.35 0.40 0.39 0.38 0.39 0.35 0.32 0.41 0.47 0.47 0.49 0.53 0.59 0.59 0.57 0.55 0.57 0.57 0.57 0.56 0.57 0.62 0.65 0.61 0.62 0.60 0.59 0.59 0.58 0.56 0.65 0.73 0.78
0.27 0.27 0.30 0.31 0.30 0.30 0.32 0.35 0.39 0.41 0.43 0.43 0.43 0.45 0.44 0.44 0.46 0.51 0.54 0.55 0.58 0.66 0.73 0.66 0.55 0.51 0.50 0.50 0.53 0.56 0.57 0.60 0.61 0.66 0.72 0.72 0.72 0.71 0.69 0.66 0.70 0.80 0.78
0.35 0.36 0.38 0.39 0.39 0.40 0.40 0.41 0.42 0.44 0.48 0.47 0.44 0.44 0.46 0.49 0.52 0.54 0.56 0.60 0.64 0.69 0.68 0.55 0.46 0.45 0.46 0.47 0.51 0.55 0.58 0.57 0.64 0.75 0.80 0.80 0.83 0.84 0.82 0.80 0.78 0.83 0.81
0.32 0.35 0.38 0.39 0.41 0.42 0.43 0.44 0.45 0.46 0.47 0.45 0.43 0.46 0.48 0.51 0.54 0.58 0.64 0.71 0.70 0.63 0.54 0.48 0.45 0.46 0.49 0.53 0.56 0.60 0.62 0.64 0.71 0.77 0.80 0.82 0.89 0.96 0.95 0.88 0.84 0.86 0.88
0.31 0.34 0.38 0.41 0.43 0.44 0.45 0.47 0.46 0.46 0.45 0.44 0.43 0.48 0.55 0.60 0.63 0.65 0.68 0.68 0.61 0.54 0.48 0.47 0.48 0.52 0.56 0.61 0.65 0.67 0.71 0.74 0.73 0.79 0.81 0.81 0.88 1.03 0.99 0.84 0.85 0.88 0.96
0.34 0.41 0.47 0.48 0.48 0.48 0.50 0.52 0.52 0.50 0.49 0.48 0.48 0.52 0.65 0.75 0.71 0.64 0.62 0.58 0.56 0.53 0.51 0.53 0.55 0.59 0.65 0.69 0.73 0.76 0.79 0.77 0.78 0.81 0.81 0.82 0.87 0.99 1.00 0.89 0.89 0.96 0.92
0.38 0.43 0.52 0.52 0.49 0.51 0.54 0.56 0.57 0.57 0.55 0.52 0.50 0.58 0.80 0.87 0.75 0.64 0.61 0.59 0.60 0.61 0.62 0.65 0.64 0.67 0.71 0.74 0.77 0.79 0.80 0.76 0.75 0.80 0.83 0.85 0.91 0.98 0.92 0.93 0.93 0.95 1.01
0.43 0.44 0.48 0.51 0.52 0.55 0.60 0.62 0.63 0.60 0.56 0.54 0.52 0.58 0.73 0.72 0.65 0.64 0.61 0.59 0.59 0.63 0.68 0.75 0.74 0.69 0.74 0.83 0.88 0.91 0.84 0.74 0.71 0.79 0.86 0.86 0.91 0.94 0.95 1.00 1.02 1.08 1.12
0.48 0.49 0.49 0.50 0.53 0.58 0.61 0.57 0.58 0.58 0.56 0.54 0.54 0.56 0.59 0.60 0.58 0.58 0.60 0.60 0.62 0.65 0.67 0.72 0.73 0.66 0.65 0.75 0.86 1.00 1.02 0.84 0.77 0.90 1.07 1.07 1.05 1.07 1.13 1.17 1.10 1.08 0.99
0.48 0.50 0.51 0.51 0.52 0.55 0.55 0.53 0.54 0.56 0.57 0.57 0.56 0.55 0.55 0.55 0.56 0.56 0.59 0.63 0.66 0.66 0.67 0.70 0.70 0.66 0.65 0.72 0.77 0.81 0.88 0.97 1.17 1.30 1.44 1.62 1.51 1.32 1.27 1.21 1.07 1.00 0.99
0.49 0.51 0.52 0.54 0.56 0.57 0.57 0.55 0.54 0.54 0.56 0.57 0.57 0.56 0.54 0.55 0.55 0.55 0.57 0.61 0.64 0.66 0.64 0.65 0.67 0.68 0.68 0.70 0.72 0.74 0.82 0.98 1.27 1.65 1.82 1.75 1.49 1.27 1.25 1.20 1.07 1.02 1.02
0.49 0.52 0.55 0.56 0.57 0.57 0.57 0.57 0.56 0.56 0.58 0.58 0.59 0.59 0.59 0.59 0.58 0.58 0.59 0.60 0.63 0.62 0.60 0.60 0.61 0.65 0.68 0.71 0.68 0.72 0.83 0.93 1.03 1.21 1.56 1.65 1.45 1.24 1.23 1.30 1.16 1.11 1.10